When you browse on this site, cookies collect data to enhance your experience and personalize the content and advertising you see.
Visit our Privacy Policy to learn more. By continuing to use the site, you agree to this use of cookies and data.
  • In Italy
  • List of Countries
  • For 7 days
  • Water Temperature
  • Satellite Maps
  • Weather Map
  • Weather Widgets
  • user-avatar
    Login

    Hourly Weather Bangalore

    Today, 21 February, Thursday

    Time Temperature Precipitation Wind Pressure Humidity
    00:00 +24°C° 0 mm 3 mps 687 mmHg 68%
    01:00 +22°C° 0 mm 3 mps 687 mmHg 72%
    02:00 +21°C° 0 mm 3 mps 686 mmHg 76%
    03:00 +21°C° 0 mm 3 mps 686 mmHg 77%
    04:00 +20°C° 0 mm 2 mps 686 mmHg 79%
    05:00 +20°C° 0 mm 2 mps 686 mmHg 79%
    06:00 +21°C° 0 mm 2 mps 687 mmHg 70%
    07:00 +23°C° 0 mm 2 mps 688 mmHg 60%
    08:00 +24°C° 0 mm 3 mps 688 mmHg 51%
    09:00 +26°C° 0 mm 4 mps 689 mmHg 42%
    10:00 +28°C° 0 mm 5 mps 689 mmHg 33%
    11:00 +33°C° 0 mm 6 mps 689 mmHg 21%
    12:00 +33°C° 0 mm 6 mps 689 mmHg 23%
    13:00 +33°C° 0 mm 6 mps 688 mmHg 24%
    14:00 +33°C° 0 mm 6 mps 688 mmHg 25%
    15:00 +33°C° 0 mm 6 mps 687 mmHg 28%
    16:00 +32°C° 0 mm 6 mps 687 mmHg 30%
    17:00 +30°C° 0 mm 5 mps 687 mmHg 31%
    18:00 +29°C° 0 mm 5 mps 687 mmHg 35%
    19:00 +28°C° 0 mm 4 mps 687 mmHg 38%
    20:00 +27°C° 0 mm 4 mps 687 mmHg 42%
    21:00 +26°C° 0 mm 4 mps 687 mmHg 44%
    22:00 +25°C° 0 mm 4 mps 687 mmHg 47%
    23:00 +23°C° 0 mm 4 mps 687 mmHg 49%

    Tomorrow, 22 February, Friday

    Time Temperature Precipitation Wind Pressure Humidity
    00:00 +24°C° 0 mm 3 mps 687 mmHg 51%
    01:00 +22°C° 0 mm 3 mps 686 mmHg 53%
    02:00 +21°C° 0 mm 3 mps 686 mmHg 55%
    03:00 +21°C° 0 mm 3 mps 686 mmHg 55%
    04:00 +20°C° 0 mm 3 mps 686 mmHg 55%
    05:00 +20°C° 0 mm 3 mps 685 mmHg 54%
    06:00 +21°C° 0 mm 3 mps 686 mmHg 47%
    07:00 +23°C° 0 mm 4 mps 687 mmHg 40%
    08:00 +25°C° 0 mm 5 mps 687 mmHg 33%
    09:00 +27°C° 0 mm 6 mps 688 mmHg 28%
    10:00 +29°C° 0 mm 7 mps 688 mmHg 24%
    11:00 +32°C° 0 mm 8 mps 688 mmHg 19%
    12:00 +33°C° 0 mm 8 mps 687 mmHg 18%
    13:00 +33°C° 0 mm 8 mps 687 mmHg 18%
    14:00 +34°C° 0 mm 8 mps 686 mmHg 17%
    15:00 +33°C° 0 mm 7 mps 686 mmHg 18%
    16:00 +33°C° 0 mm 7 mps 685 mmHg 20%
    17:00 +32°C° 0 mm 6 mps 685 mmHg 22%
    18:00 +29°C° 0 mm 5 mps 685 mmHg 25%
    19:00 +28°C° 0 mm 5 mps 686 mmHg 27%
    20:00 +26°C° 0 mm 4 mps 686 mmHg 30%
    21:00 +25°C° 0 mm 4 mps 686 mmHg 33%
    22:00 +24°C° 0 mm 3 mps 686 mmHg 35%
    23:00 +22°C° 0 mm 3 mps 686 mmHg 37%

    Day after tomorrow, 23 February, Saturday

    Time Temperature Precipitation Wind Pressure Humidity
    00:00 +22°C° 0 mm 3 mps 686 mmHg 39%
    01:00 +21°C° 0 mm 3 mps 685 mmHg 40%
    02:00 +21°C° 0 mm 3 mps 685 mmHg 41%
    03:00 +20°C° 0 mm 2 mps 684 mmHg 41%
    04:00 +20°C° 0 mm 2 mps 684 mmHg 40%
    05:00 +19°C° 0 mm 2 mps 684 mmHg 40%
    06:00 +21°C° 0 mm 2 mps 684 mmHg 36%
    07:00 +22°C° 0 mm 3 mps 685 mmHg 31%
    08:00 +25°C° 0 mm 3 mps 686 mmHg 27%
    09:00 +27°C° 0 mm 4 mps 686 mmHg 23%
    10:00 +30°C° 0 mm 4 mps 687 mmHg 19%
    11:00 +33°C° 0 mm 5 mps 687 mmHg 14%
    12:00 +34°C° 0 mm 5 mps 686 mmHg 14%
    13:00 +35°C° 0 mm 5 mps 685 mmHg 13%
    14:00 +35°C° 0 mm 6 mps 684 mmHg 12%
    15:00 +35°C° 0 mm 5 mps 684 mmHg 13%
    16:00 +34°C° 0 mm 5 mps 684 mmHg 14%
    17:00 +33°C° 0 mm 5 mps 684 mmHg 15%
    18:00 +32°C° 0 mm 5 mps 684 mmHg 19%
    19:00 +29°C° 0 mm 4 mps 684 mmHg 23%
    20:00 +27°C° 0 mm 4 mps 685 mmHg 27%
    21:00 +26°C° 0 mm 4 mps 685 mmHg 32%
    22:00 +25°C° 0 mm 4 mps 685 mmHg 36%
    23:00 +24°C° 0 mm 3 mps 685 mmHg 40%

    24 February, Sunday

    Time Temperature Precipitation Wind Pressure Humidity
    00:00 +24°C° 0 mm 3 mps 684 mmHg 42%
    01:00 +22°C° 0 mm 3 mps 684 mmHg 44%
    02:00 +21°C° 0 mm 2 mps 683 mmHg 46%
    03:00 +21°C° 0 mm 2 mps 683 mmHg 45%
    04:00 +20°C° 0 mm 2 mps 683 mmHg 45%
    05:00 +21°C° 0 mm 1 mps 683 mmHg 44%
    06:00 +21°C° 0 mm 2 mps 684 mmHg 39%
    07:00 +24°C° 0 mm 2 mps 685 mmHg 34%
    08:00 +25°C° 0 mm 2 mps 685 mmHg 30%
    09:00 +28°C° 0 mm 3 mps 686 mmHg 25%
    10:00 +30°C° 0 mm 4 mps 686 mmHg 19%
    11:00 +33°C° 0 mm 4 mps 686 mmHg 14%
    12:00 +34°C° 0 mm 4 mps 685 mmHg 13%
    13:00 +35°C° 0 mm 4 mps 684 mmHg 12%
    14:00 +36°C° 0 mm 4 mps 683 mmHg 11%
    15:00 +35°C° 0 mm 4 mps 683 mmHg 12%
    16:00 +35°C° 0 mm 4 mps 683 mmHg 13%
    17:00 +34°C° 0 mm 4 mps 683 mmHg 14%
    18:00 +32°C° 0 mm 4 mps 684 mmHg 17%
    19:00 +29°C° 0 mm 4 mps 684 mmHg 21%
    20:00 +28°C° 0 mm 4 mps 685 mmHg 24%
    21:00 +27°C° 0 mm 4 mps 685 mmHg 29%
    22:00 +26°C° 0 mm 4 mps 685 mmHg 34%
    23:00 +25°C° 0 mm 4 mps 685 mmHg 40%

    25 February, Monday

    Time Temperature Precipitation Wind Pressure Humidity
    00:00 +24°C° 0 mm 3 mps 684 mmHg 44%
    01:00 +22°C° 0 mm 3 mps 684 mmHg 48%
    02:00 +22°C° 0 mm 3 mps 683 mmHg 52%
    03:00 +21°C° 0 mm 2 mps 683 mmHg 53%
    04:00 +21°C° 0 mm 2 mps 683 mmHg 55%
    05:00 +20°C° 0 mm 2 mps 683 mmHg 56%
    06:00 +21°C° 0 mm 2 mps 684 mmHg 51%
    07:00 +23°C° 0 mm 2 mps 684 mmHg 47%
    08:00 +25°C° 0 mm 2 mps 685 mmHg 42%
    09:00 +27°C° 0 mm 2 mps 685 mmHg 34%
    10:00 +29°C° 0 mm 2 mps 686 mmHg 27%
    11:00 +31°C° 0 mm 3 mps 686 mmHg 19%
    12:00 +32°C° 0 mm 2 mps 685 mmHg 16%
    13:00 +34°C° 0 mm 2 mps 684 mmHg 14%
    14:00 +34°C° 0 mm 1 mps 683 mmHg 12%
    15:00 +34°C° 0 mm 1 mps 683 mmHg 12%
    16:00 +34°C° 0 mm 1 mps 683 mmHg 12%
    17:00 +34°C° 0 mm 1 mps 683 mmHg 12%
    18:00 +32°C° 0 mm 1 mps 683 mmHg 13%
    19:00 +30°C° 0 mm 2 mps 684 mmHg 14%
    20:00 +29°C° 0 mm 2 mps 684 mmHg 16%
    21:00 +28°C° 0 mm 2 mps 684 mmHg 18%
    22:00 +27°C° 0 mm 3 mps 684 mmHg 21%
    23:00 +26°C° 0 mm 3 mps 684 mmHg 23%

    26 February, Tuesday

    Time Temperature Precipitation Wind Pressure Humidity
    00:00 +25°C° 0 mm 3 mps 684 mmHg 29%
    01:00 +24°C° 0 mm 2 mps 683 mmHg 34%
    02:00 +23°C° 0 mm 2 mps 683 mmHg 40%
    03:00 +23°C° 0 mm 2 mps 683 mmHg 52%
    04:00 +21°C° 0 mm 2 mps 683 mmHg 64%
    05:00 +21°C° 0 mm 2 mps 683 mmHg 75%
    06:00 +23°C° 0 mm 2 mps 683 mmHg 74%
    07:00 +24°C° 0 mm 2 mps 684 mmHg 73%
    08:00 +25°C° 0 mm 3 mps 685 mmHg 72%
    09:00 +27°C° 0 mm 3 mps 685 mmHg 59%
    10:00 +29°C° 0 mm 3 mps 685 mmHg 46%
    11:00 +31°C° 0 mm 3 mps 685 mmHg 33%
    12:00 +33°C° 0 mm 3 mps 685 mmHg 29%
    13:00 +34°C° 0 mm 3 mps 684 mmHg 26%
    14:00 +35°C° 0 mm 2 mps 683 mmHg 22%
    15:00 +35°C° 0 mm 2 mps 683 mmHg 22%
    16:00 +34°C° 0 mm 2 mps 682 mmHg 22%
    17:00 +34°C° 0 mm 2 mps 682 mmHg 21%
    18:00 +33°C° 0 mm 3 mps 683 mmHg 23%
    19:00 +31°C° 0 mm 3 mps 683 mmHg 24%
    20:00 +30°C° 0 mm 3 mps 683 mmHg 26%
    21:00 +29°C° 0 mm 3 mps 683 mmHg 29%
    22:00 +29°C° 0 mm 3 mps 684 mmHg 31%
    23:00 +28°C° 0 mm 3 mps 684 mmHg 34%
    Show more